Weather History for Warsaw, IN

Change the Weather History Date:

Monday, January 28, 2013

  Actual Average Record
Temperature  
Mean Temperature 4 °C -  
Max Temperature 9 °C -1 °C 11 °C (2006)
Min Temperature 1 °C -10 °C -26 °C (1963)
Degree Days  
Heating Degree Days 24    
Moisture  
Dew Point 6 °C    
Average Humidity 98    
Maximum Humidity 100    
Minimum Humidity 93    
Precipitation  
Precipitation 1.78 mm - - ()
Sea Level Pressure  
Sea Level Pressure 1014 hPa    
Wind  
Wind Speed 13 km/h (SW)    
Max Wind Speed 19 km/h    
Max Gust Speed 29 km/h    
Visibility 3 kilometers    
Events Fog , Rain , Snow    
Averages and records for this station are not official NWS values.
T = Trace of Precipitation, MM = Missing Value Source: NWS Daily Summary

Daily Weather History Graph

Daily Weather History Graph

Search for Another Location

Airport:

Trip Planner

Search our weather history database for the weather conditions in past years. The results will help you decide how hot, cold, wet, or windy it might be!

Date:

Astronomy

Jan. 28, 2013 Rise Set
Actual Time 7:58 AM EST 5:55 PM EST
Civil Twilight 7:28 AM EST 6:24 PM EST
Nautical Twilight 6:55 AM EST 6:57 PM EST
Astronomical Twilight 6:22 AM EST 7:30 PM EST
Moon 7:51 PM EST (1/28) 8:21 AM EST (1/28)
Length of Visible Light 10h 56m
Length of Day
9h 57m
Full, 98% of the Moon is Illuminated
Jan 28
Full
Feb 3
Last Quarter
Feb 10
New
Feb 17
First Quarter
Feb 25
Full

Hourly Weather History & Observations

Time (EST) Temp. Windchill Dew Point Humidity Pressure Visibility Wind Dir Wind Speed Gust Speed Precip Events Conditions
12:15 AM 1.0 °C -3.4 °C 0.0 °C 93% 1017.2 hPa 8.0 km South 16.7 km/h / 4.6 m/s 27.8 km/h / 7.7 m/s N/A   Overcast
12:35 AM 1.0 °C -2.4 °C 0.0 °C 93% 1017.2 hPa 8.0 km South 11.1 km/h / 3.1 m/s - N/A   Overcast
12:55 AM 1.0 °C -2.8 °C 0.0 °C 93% 1016.8 hPa 8.0 km South 13.0 km/h / 3.6 m/s - N/A   Overcast
1:15 AM 1.0 °C -3.1 °C 1.0 °C 100% 1016.1 hPa 4.8 km South 14.8 km/h / 4.1 m/s - N/A   Overcast
1:35 AM 1.0 °C -2.4 °C 1.0 °C 100% 1015.8 hPa 4.0 km South 11.1 km/h / 3.1 m/s - N/A   Overcast
1:55 AM 1.0 °C -2.4 °C 1.0 °C 100% 1015.8 hPa 2.8 km SSW 11.1 km/h / 3.1 m/s - N/A Snow Light Snow
2:15 AM 2.0 °C -1.2 °C 2.0 °C 100% 1015.5 hPa 2.0 km South 11.1 km/h / 3.1 m/s - N/A   Overcast
2:35 AM 2.0 °C -1.2 °C 2.0 °C 100% 1015.5 hPa 2.0 km South 11.1 km/h / 3.1 m/s - N/A   Overcast
2:55 AM 3.0 °C -0.3 °C 2.0 °C 93% 1015.1 hPa 2.4 km SSW 13.0 km/h / 3.6 m/s - N/A   Overcast
3:15 AM 3.0 °C -0.3 °C 3.0 °C 100% 1014.8 hPa 2.4 km South 13.0 km/h / 3.6 m/s - N/A   Overcast
3:35 AM 3.0 °C 0.0 °C 3.0 °C 100% 1014.4 hPa 2.0 km SSW 11.1 km/h / 3.1 m/s - N/A   Overcast
3:55 AM 3.0 °C 0.5 °C 3.0 °C 100% 1014.1 hPa 2.4 km SSW 9.3 km/h / 2.6 m/s - N/A Rain Light Rain
4:15 AM 4.0 °C 0.6 °C 4.0 °C 100% 1014.1 hPa 3.2 km SSW 14.8 km/h / 4.1 m/s - N/A Rain Rain
4:35 AM 5.0 °C 2.1 °C 5.0 °C 100% 1013.8 hPa 4.0 km SSW 13.0 km/h / 3.6 m/s - N/A Rain Rain
4:55 AM 5.0 °C 2.1 °C 5.0 °C 100% 1013.8 hPa 4.0 km SSW 13.0 km/h / 3.6 m/s - N/A Rain Light Rain
5:15 AM 6.0 °C 3.3 °C 5.0 °C 93% 1013.4 hPa 4.0 km SSW 13.0 km/h / 3.6 m/s - N/A Rain Light Rain
5:35 AM 6.0 °C 3.3 °C 6.0 °C 100% 1013.4 hPa 4.0 km SW 13.0 km/h / 3.6 m/s - 0.3 mm   Drizzle
5:55 AM 7.0 °C 4.5 °C 6.0 °C 93% 1013.4 hPa 4.8 km SW 13.0 km/h / 3.6 m/s - 0.3 mm   Light Drizzle
6:15 AM 7.0 °C 4.5 °C 7.0 °C 100% 1013.1 hPa 6.4 km SW 13.0 km/h / 3.6 m/s - N/A   Overcast
6:35 AM 7.0 °C 4.3 °C 7.0 °C 100% 1013.1 hPa 6.4 km SW 14.8 km/h / 4.1 m/s - N/A   Overcast
6:55 AM 7.0 °C 4.5 °C 7.0 °C 100% 1013.1 hPa 6.4 km SW 13.0 km/h / 3.6 m/s - N/A   Overcast
7:15 AM 7.0 °C 4.5 °C 7.0 °C 100% 1012.8 hPa 6.4 km SSW 13.0 km/h / 3.6 m/s 27.8 km/h / 7.7 m/s N/A   Overcast
7:35 AM 7.0 °C 4.3 °C 7.0 °C 100% 1012.8 hPa 6.4 km SW 14.8 km/h / 4.1 m/s - N/A   Overcast
7:55 AM 7.0 °C 3.8 °C 7.0 °C 100% 1012.4 hPa 6.4 km SW 18.5 km/h / 5.1 m/s 25.9 km/h / 7.2 m/s N/A   Overcast
8:15 AM 8.0 °C 5.0 °C 7.0 °C 93% 1012.4 hPa 4.0 km SW 18.5 km/h / 5.1 m/s 29.6 km/h / 8.2 m/s N/A Rain Rain
8:35 AM 8.0 °C 5.5 °C 7.0 °C 93% 1012.8 hPa 3.2 km SW 14.8 km/h / 4.1 m/s 25.9 km/h / 7.2 m/s 0.5 mm Rain Rain
8:55 AM 8.0 °C 5.8 °C 7.0 °C 93% 1013.1 hPa 3.2 km SW 13.0 km/h / 3.6 m/s - 0.8 mm Rain Rain
9:15 AM 8.0 °C 5.0 °C 7.0 °C 93% 1013.1 hPa 4.0 km SW 18.5 km/h / 5.1 m/s 27.8 km/h / 7.7 m/s N/A   Light Drizzle
9:35 AM 8.0 °C 5.0 °C 7.0 °C 93% 1013.1 hPa 4.8 km SW 18.5 km/h / 5.1 m/s 29.6 km/h / 8.2 m/s N/A   Overcast
9:55 AM 8.0 °C 5.3 °C 8.0 °C 100% 1013.1 hPa 4.0 km SW 16.7 km/h / 4.6 m/s 29.6 km/h / 8.2 m/s N/A   Overcast
10:15 AM 8.0 °C 5.8 °C 8.0 °C 100% 1013.4 hPa 3.2 km SW 13.0 km/h / 3.6 m/s 29.6 km/h / 8.2 m/s N/A Rain Light Rain
10:35 AM 8.0 °C 5.5 °C 8.0 °C 100% 1013.4 hPa 3.2 km SW 14.8 km/h / 4.1 m/s - N/A   Drizzle
10:55 AM 8.0 °C 5.5 °C 8.0 °C 100% 1013.4 hPa 4.0 km SW 14.8 km/h / 4.1 m/s 25.9 km/h / 7.2 m/s 0.3 mm   Overcast
11:35 AM 9.0 °C - 8.0 °C 93% 1013.8 hPa 2.0 km WSW 16.7 km/h / 4.6 m/s 25.9 km/h / 7.2 m/s N/A Rain Rain
11:55 AM 9.0 °C - 8.0 °C 93% 1013.8 hPa 2.4 km SW 16.7 km/h / 4.6 m/s - N/A Rain Light Rain
12:15 PM 9.0 °C - 8.0 °C 93% 1013.8 hPa 1.6 km WSW 16.7 km/h / 4.6 m/s - N/A   Drizzle
12:35 PM 9.0 °C - 8.0 °C 93% 1013.4 hPa 1.6 km WSW 16.7 km/h / 4.6 m/s 29.6 km/h / 8.2 m/s N/A   Drizzle
12:55 PM 9.0 °C - 8.0 °C 93% 1013.4 hPa 1.6 km WSW 16.7 km/h / 4.6 m/s 27.8 km/h / 7.7 m/s N/A Rain Rain
1:15 PM 9.0 °C - 8.0 °C 93% 1013.4 hPa 1.2 km WSW 14.8 km/h / 4.1 m/s - N/A   Drizzle
1:35 PM 9.0 °C - 8.0 °C 93% 1013.4 hPa 1.6 km WSW 16.7 km/h / 4.6 m/s - N/A Rain Rain
1:55 PM 9.0 °C - 8.0 °C 93% 1013.4 hPa 1.2 km WSW 14.8 km/h / 4.1 m/s - 0.3 mm   Drizzle
2:15 PM 9.0 °C - 9.0 °C 100% 1013.1 hPa 1.6 km WSW 14.8 km/h / 4.1 m/s - N/A Rain Light Rain
2:35 PM 9.0 °C - 9.0 °C 100% 1013.1 hPa 1.6 km WSW 16.7 km/h / 4.6 m/s - N/A Rain Rain
2:55 PM 9.0 °C - 9.0 °C 100% 1013.1 hPa 2.0 km WSW 14.8 km/h / 4.1 m/s - N/A Rain Light Rain
3:15 PM 9.0 °C - 9.0 °C 100% 1013.4 hPa 1.6 km WSW 16.7 km/h / 4.6 m/s - N/A   Drizzle
3:35 PM 9.0 °C - 9.0 °C 100% 1013.4 hPa 2.0 km WSW 16.7 km/h / 4.6 m/s - N/A Rain Light Rain
3:55 PM 9.0 °C - 9.0 °C 100% 1013.8 hPa 2.0 km WSW 14.8 km/h / 4.1 m/s - N/A   Drizzle
4:15 PM 9.0 °C - 9.0 °C 100% 1013.8 hPa 1.6 km WSW 13.0 km/h / 3.6 m/s - N/A   Drizzle
4:35 PM 9.0 °C - 8.0 °C 93% 1014.1 hPa 1.6 km WSW 13.0 km/h / 3.6 m/s - N/A   Drizzle
4:55 PM 9.0 °C - 8.0 °C 93% 1014.4 hPa 1.6 km WSW 13.0 km/h / 3.6 m/s - N/A Rain Light Rain
5:15 PM 8.0 °C 6.8 °C 8.0 °C 100% 1014.4 hPa 1.2 km WSW 7.4 km/h / 2.1 m/s - N/A Rain Light Rain
5:35 PM 8.0 °C - 8.0 °C 100% 1014.4 hPa 0.8 km Calm Calm - N/A Fog Fog
5:55 PM 8.0 °C 7.3 °C 8.0 °C 100% 1014.4 hPa 0.4 km SW 5.6 km/h / 1.5 m/s - N/A Fog Fog
6:15 PM 8.0 °C 6.8 °C 8.0 °C 100% 1014.8 hPa 0.8 km SW 7.4 km/h / 2.1 m/s - N/A Fog Fog
6:35 PM 8.0 °C - 8.0 °C 100% 1015.1 hPa 0.8 km Calm Calm - N/A Fog Fog
6:55 PM 8.0 °C - 8.0 °C 100% 1015.1 hPa 0.8 km Calm Calm - 0.3 mm Fog Fog
7:15 PM 8.0 °C - 8.0 °C 100% 1015.1 hPa 0.8 km Calm Calm - N/A   Drizzle
7:35 PM 8.0 °C - 8.0 °C 100% 1015.1 hPa 0.8 km Calm Calm - N/A   Unknown
7:55 PM 8.0 °C - 8.0 °C 100% 1015.1 hPa 0.8 km Calm Calm - N/A   Unknown
8:15 PM 8.0 °C - 8.0 °C 100% 1015.1 hPa 0.8 km Calm Calm - N/A   Drizzle
8:55 PM 7.0 °C - 7.0 °C 100% 1015.1 hPa 0.4 km Calm Calm - N/A   Unknown
9:15 PM 6.0 °C - 6.0 °C 100% 1015.1 hPa 0.4 km Calm Calm - N/A   Light Drizzle
10:15 PM 6.0 °C - 6.0 °C 100% 1015.1 hPa 0.4 km Calm Calm - N/A Fog Fog
10:55 PM 7.0 °C - 7.0 °C 100% 1015.1 hPa 0.4 km Calm Calm - N/A Fog Fog
11:15 PM 7.0 °C - 7.0 °C 100% 1014.8 hPa 0.4 km Calm Calm - N/A   Unknown
11:35 PM 7.0 °C - 7.0 °C 100% 1014.4 hPa 0.4 km Calm Calm - N/A   Unknown
11:55 PM 7.0 °C 6.2 °C 7.0 °C 100% 1014.4 hPa 0.4 km South 5.6 km/h / 1.5 m/s - N/A Rain Light Rain